Regional Weather Roundup
Issued by NWS Raleigh/Durham, NC

Home | Current Version | Previous Version | Text Only | Print | Product List | Glossary On
Versions: 1 2 3 4 5 6 7 8 9 10 11 12 13 14 15 16 17 18 19 20 21 22 23 24 25 26 27
000
ASUS42 KRAH 251110
RWRRAH
NORTH CAROLINA WEATHER ROUNDUP
NATIONAL WEATHER SERVICE RALEIGH NC
700 AM EDT TUE APR 25 2017

NOTE: "FAIR" INDICATES FEW OR NO CLOUDS BELOW 12,000 FEET WITH NO
SIGNIFICANT WEATHER AND/OR OBSTRUCTIONS TO VISIBILITY.

NCZ001-053-055-056-065-067-251200-
WESTERN NORTH CAROLINA

CITY           SKY/WX    TMP DP  RH WIND       PRES   REMARKS
ASHEVILLE      CLOUDY    54  51  90 N9        29.73R
JEFFERSON      NOT AVBL
HICKORY        NOT AVBL
RUTHERFORDTON  CLOUDY    55  55 100 N5        29.70R
MOUNT AIRY     DRIZZLE   56  54  93 NE8       29.72R
BOONE          DRIZZLE   52  52 100 CALM      29.75R
$$

NCZ021-022-025-041-071-084-088-251200-
CENTRAL NORTH CAROLINA

CITY           SKY/WX    TMP DP  RH WIND       PRES   REMARKS
CHARLOTTE      NOT AVBL
GREENSBORO     LGT RAIN  53  53 100 N7        29.67R
WINSTON-SALEM  LGT RAIN  53  51  93 NE13G20   29.69R FOG
RALEIGH-DURHAM RAIN      59  57  93 N9        29.62R FOG
FORT BRAGG     LGT RAIN  61  61 100 NW5       29.58R
FAYETTEVILLE   CLOUDY    63  62  97 W3        29.58R
BURLINGTON     LGT RAIN  56  55  97 N13       29.64S
LAURINBURG     CLOUDY    60  60 100 N3        29.61R
$$

NCZ011-015-027-028-043-044-047-080-103-251200-
NORTHEASTERN NORTH CAROLINA

CITY           SKY/WX    TMP DP  RH WIND       PRES   REMARKS
ROCKY MT-WILSO RAIN      60  60 100 NW8       29.59F FOG
GREENVILLE     RAIN      61  61 100 CALM      29.60F
WASHINGTON     LGT RAIN  60  60  98 W5        29.53F
ELIZABETH CITY NOT AVBL
MANTEO         CLOUDY    65  61  85 SW15      29.56R
CAPE HATTERAS  CLOUDY    68  61  78 SW10      29.59R HAZE
$$

NCZ078-087-090-091-093-098-101-251200-
SOUTHEASTERN NORTH CAROLINA

CITY           SKY/WX    TMP DP  RH WIND       PRES   REMARKS
LUMBERTON      FOG       58  58 100 W6        29.59R VSB 1/2
GOLDSBORO      CLOUDY    61  61 100 CALM      29.56S
KINSTON        LGT RAIN  61  61 100 NW6       29.57S
KENANSVILLE    CLOUDY    63  63 100 CALM      29.58R FOG
NEW BERN       CLOUDY    62  62 100 W7        29.58R
CHERRY POINT   NOT AVBL
BEAUFORT       CLEAR     64  63  96 SW5       29.58R
JACKSONVILLE   FOG       63  63 100 CALM      29.57R VSB 1/4
WILMINGTON     CLOUDY    63  63 100 NW3       29.58R FOG
$$





USA.gov is the U.S. government's official web portal to all federal, state and local government web resources and services.